CZ-6A DEB, 55232

Orbit data source: Space-Track

CZ-6A DEB, 55232 is space debris in SSO originally from a launch on Fri, 11 Nov 2022 UTC launched from the Taiyaun Space Center, China (TSC). Debris objects in space refer to the collection of defunct objects orbiting the Earth. Examples of debris include non-operational satellites, rocket bodies, and fragments generated from explosions, collisions, or faulty payload assembly.

Loading next visibility...
Identifier
55232, 2022-151WZ
Orbit
SSO
Country
Flag of CNCN / PRC
Related business
Manufacturer
SAST
Mission
Spacecraft
Bus & Motor
Unknown
Mass
Unknown
Launch date (UTC)
2022-11-11 (4 years ago)
Launch vehicle
Unknown
Launch site
Taiyaun Space Center, China (TSC)
Object type
Payload
Rocket body
Debris
Shape & HBR
Unknown shape, 0.1 m
Radar Cross Section
Medium (>0.1 m² and <1 m²)

Expand to show TLE details & history
Last TLE update: 1 day ago

TLE from 1 day ago
0 CZ-6A DEB
1 55232U 22151WZ  26262.19569591  .00005519  00000-0  78582-3 0  9994
2 55232  98.6200 343.4062 0072746 308.5706  50.8998 14.75472636199228
Epoch: 2026-09-19T04:41Z
TLE epoch observation values (Epoch: 2026-09-19T04:41:48.126Z)
Latitude
-0.00006°
Longitude
-85.15203°
Altitude
614.648 km
Speed
7.569 km/s
True Right ascension
22h 53m 37s
True Declination
0° 00' 00"
Sunlit
Object was in full shadow at epoch
Visualization orbit readout
Latitude
Unknown
Longitude
Unknown
Altitude
Unknown
Speed
Unknown
Apparent Right ascension
Unknown
Apparent Declination
Unknown
Sunlit
N/A
Visualization observer readout
Local Sidereal Time
06:07:39
Azimuth
Unknown
Elevation
Unknown
Doppler factor
Unknown
Orbital elements
Apogee altitude
691.791 km
Perigee altitude
589.672 km
Semi-major axis
7,018.869 km
Eccentricity
0.00727
Inclination
98.62°
RAAN
343.4062°
Arg. of periapsis
308.5706°
True anomaly
51.55043°
Mean anomaly
50.8998°
Eccentric anomaly
51.22474°
Mean motion
3.69099 °/min
Orbital period
97.53 mins
BSTAR
0.00078582
Loading maneuver chart data...
Computing Atmospheric mass density...
Loading historical data...
Loading historical data...
Loading historical data...
Loading historical data...
Loading historical data...
Loading historical data...
Loading historical data...

Documentation

Showing up to 5 results
|